TimeCST,TemperatureF,Dew PointF,Humidity,Sea Level PressureIn,VisibilityMPH,Wind Direction,Wind SpeedMPH,Gust SpeedMPH,PrecipitationIn,Events,Conditions,WindDirDegrees,DateUTC
12:54 AM,17.1,5.0,59,29.88,10.0,South,6.9,-,N/A,,Overcast,190,2014-01-26 06:54:00
1:54 AM,18.0,5.0,57,29.81,10.0,SSE,10.4,-,N/A,,Overcast,160,2014-01-26 07:54:00
2:54 AM,19.0,5.0,54,29.72,10.0,SSE,13.8,-,N/A,,Overcast,160,2014-01-26 08:54:00
3:54 AM,19.9,8.1,60,29.66,10.0,South,18.4,25.3,N/A,,Overcast,170,2014-01-26 09:54:00
4:54 AM,21.9,8.1,55,29.58,10.0,South,18.4,27.6,N/A,,Overcast,180,2014-01-26 10:54:00
5:54 AM,25.0,8.1,49,29.58,10.0,SSW,23.0,27.6,N/A,,Overcast,200,2014-01-26 11:54:00
6:54 AM,28.9,12.0,49,29.57,10.0,SSW,21.9,32.2,N/A,,Overcast,210,2014-01-26 12:54:00
7:54 AM,30.9,14.0,50,29.56,10.0,SW,21.9,31.1,N/A,,Overcast,220,2014-01-26 13:54:00
8:54 AM,34.0,19.9,56,29.56,10.0,WSW,15.0,21.9,N/A,,Overcast,240,2014-01-26 14:54:00
9:54 AM,37.9,24.1,57,29.57,10.0,WSW,12.7,21.9,N/A,,Overcast,240,2014-01-26 15:54:00
10:54 AM,39.9,26.1,58,29.59,10.0,WSW,13.8,-,N/A,,Overcast,250,2014-01-26 16:54:00
11:54 AM,44.1,28.9,55,29.58,10.0,West,18.4,27.6,N/A,,Overcast,270,2014-01-26 17:54:00
12:54 PM,45.0,28.9,53,29.57,10.0,WNW,12.7,26.5,N/A,,Overcast,290,2014-01-26 18:54:00
1:54 PM,46.9,28.9,50,29.56,10.0,West,15.0,19.6,N/A,,Clear,270,2014-01-26 19:54:00
2:54 PM,48.0,28.0,46,29.57,10.0,West,16.1,24.2,N/A,,Scattered Clouds,260,2014-01-26 20:54:00
3:54 PM,46.9,26.1,44,29.58,10.0,West,12.7,24.2,N/A,,Clear,270,2014-01-26 21:54:00
4:54 PM,44.1,30.0,58,29.60,10.0,WSW,9.2,-,N/A,,Clear,240,2014-01-26 22:54:00
5:54 PM,41.0,28.9,62,29.59,10.0,SW,8.1,-,N/A,,Clear,230,2014-01-26 23:54:00
6:54 PM,42.1,30.0,62,29.56,10.0,SW,12.7,-,N/A,,Partly Cloudy,220,2014-01-27 00:54:00
7:54 PM,42.1,30.0,62,29.57,10.0,SW,15.0,-,N/A,,Clear,220,2014-01-27 01:54:00
8:32 PM,33.8,24.8,70,29.67,10.0,NNW,27.6,52.9,N/A,,Overcast,330,2014-01-27 02:32:00
8:39 PM,32.0,23.0,69,29.68,10.0,NNW,31.1,47.2,N/A,,Overcast,330,2014-01-27 02:39:00
8:46 PM,30.2,23.0,75,29.70,10.0,NNW,29.9,39.1,N/A,,Overcast,330,2014-01-27 02:46:00
8:54 PM,30.9,23.0,72,29.73,10.0,NNW,29.9,40.3,N/A,,Overcast,340,2014-01-27 02:54:00
9:04 PM,30.2,21.2,69,29.73,10.0,NNW,31.1,38.0,N/A,,Overcast,330,2014-01-27 03:04:00
9:54 PM,24.1,14.0,65,29.84,10.0,NNW,31.1,44.9,N/A,,Overcast,330,2014-01-27 03:54:00
10:54 PM,19.0,3.9,52,29.91,10.0,NNW,27.6,42.6,0.00,,Overcast,330,2014-01-27 04:54:00
11:54 PM,17.1,-0.9,45,29.97,10.0,NW,26.5,40.3,N/A,,Overcast,320,2014-01-27 05:54:00